Location: Bishopstone
(51.0167°N, 1.9000°W)
Time: 19:11:01
(UTC+00:00)

Meteor 2-9 Rocket - Pass Details

Date: 16 September 2019
Orbit: 791 x 896 km, 81.3° (Epoch: 20 October)

Event Time Altitude Azimuth Distance (km) Brightness Sun altitude
Rises 19:33:26 0° 195° (SSW) 3,481 7.4 -12.1°
Reaches altitude 10° 19:35:54 10° 197° (SSW) 2,536 6.7 -12.4°
Maximum altitude 19:41:41 77° 283° (WNW) 896 4.5 -13.3°
Drops below altitude 10° 19:47:22 10° 10° (N) 2,489 6.8 -14.1°
Sets 19:49:46 0° 12° (NNE) 3,413 7.5 -14.5°
